EN

Hourly Weather Zaharovo

Today, 23 October, Friday

Time Temperature Precipitation Wind Pressure Humidity
00:00 +7°C° 0.2 mm 5 mps 743 mmHg 87%
01:00 +7°C° 0 mm 5 mps 742 mmHg 87%
02:00 +7°C° 0 mm 6 mps 742 mmHg 87%
03:00 +7°C° 0 mm 6 mps 742 mmHg 87%
04:00 +8°C° 0 mm 6 mps 741 mmHg 87%
05:00 +8°C° 0 mm 6 mps 741 mmHg 88%
06:00 +9°C° 0 mm 7 mps 741 mmHg 88%
07:00 +9°C° 0 mm 7 mps 741 mmHg 86%
08:00 +10°C° 0 mm 7 mps 741 mmHg 84%
09:00 +10°C° 0 mm 7 mps 741 mmHg 82%
10:00 +11°C° 0 mm 7 mps 741 mmHg 81%
11:00 +11°C° 0 mm 7 mps 742 mmHg 79%
12:00 +12°C° 0 mm 7 mps 742 mmHg 77%
13:00 +11°C° 0 mm 7 mps 742 mmHg 77%
14:00 +11°C° 0 mm 6 mps 742 mmHg 78%
15:00 +11°C° 0 mm 6 mps 742 mmHg 78%
16:00 +10°C° 0 mm 5 mps 742 mmHg 81%
17:00 +10°C° 0 mm 5 mps 742 mmHg 84%
18:00 +10°C° 0 mm 4 mps 741 mmHg 88%
19:00 +11°C° 0.6 mm 4 mps 741 mmHg 89%
20:00 +10°C° 0.6 mm 5 mps 740 mmHg 91%
21:00 +10°C° 0.6 mm 5 mps 740 mmHg 92%
22:00 +10°C° 0.7 mm 6 mps 740 mmHg 91%
23:00 +11°C° 0.7 mm 6 mps 739 mmHg 89%

Tomorrow, 24 October, Saturday

Time Temperature Precipitation Wind Pressure Humidity
00:00 +11°C° 0.7 mm 7 mps 739 mmHg 88%
01:00 +10°C° 0 mm 6 mps 739 mmHg 88%
02:00 +10°C° 0 mm 6 mps 740 mmHg 89%
03:00 +9°C° 0 mm 6 mps 740 mmHg 90%
04:00 +9°C° 0 mm 5 mps 740 mmHg 91%
05:00 +9°C° 0 mm 5 mps 740 mmHg 91%
06:00 +8°C° 0 mm 5 mps 740 mmHg 92%
07:00 +8°C° 0 mm 5 mps 741 mmHg 90%
08:00 +8°C° 0 mm 5 mps 741 mmHg 88%
09:00 +8°C° 0 mm 5 mps 742 mmHg 87%
10:00 +10°C° 0 mm 4 mps 742 mmHg 82%
11:00 +10°C° 0 mm 4 mps 743 mmHg 77%
12:00 +10°C° 0 mm 4 mps 743 mmHg 73%
13:00 +10°C° 0 mm 4 mps 743 mmHg 72%
14:00 +11°C° 0 mm 4 mps 743 mmHg 72%
15:00 +11°C° 0 mm 4 mps 743 mmHg 72%
16:00 +10°C° 0 mm 3 mps 743 mmHg 74%
17:00 +10°C° 0 mm 3 mps 743 mmHg 76%
18:00 +9°C° 0 mm 2 mps 743 mmHg 79%
19:00 +9°C° 0 mm 2 mps 744 mmHg 79%
20:00 +9°C° 0 mm 2 mps 744 mmHg 80%
21:00 +9°C° 0 mm 2 mps 744 mmHg 81%
22:00 +9°C° 0 mm 2 mps 744 mmHg 81%
23:00 +8°C° 0 mm 2 mps 744 mmHg 82%

Day after tomorrow, 25 October, Sunday

Time Temperature Precipitation Wind Pressure Humidity
00:00 +8°C° 0 mm 2 mps 743 mmHg 82%
01:00 +8°C° 0 mm 2 mps 743 mmHg 83%
02:00 +8°C° 0 mm 2 mps 743 mmHg 84%
03:00 +8°C° 0 mm 2 mps 743 mmHg 85%
04:00 +9°C° 0.6 mm 1 mps 743 mmHg 88%
05:00 +9°C° 0.6 mm 1 mps 743 mmHg 91%
06:00 +9°C° 0.6 mm 1 mps 743 mmHg 94%
07:00 +9°C° 0.4 mm 1 mps 743 mmHg 93%
08:00 +8°C° 0.4 mm 2 mps 743 mmHg 92%
09:00 +8°C° 0.4 mm 3 mps 743 mmHg 91%
10:00 +7°C° 0.1 mm 4 mps 743 mmHg 85%
11:00 +8°C° 0.1 mm 4 mps 743 mmHg 80%
12:00 +8°C° 0.1 mm 5 mps 744 mmHg 74%
13:00 +8°C° 0 mm 4 mps 744 mmHg 75%
14:00 +8°C° 0 mm 4 mps 744 mmHg 75%
15:00 +8°C° 0 mm 4 mps 744 mmHg 76%
16:00 +9°C° 0.1 mm 3 mps 745 mmHg 80%
17:00 +9°C° 0.1 mm 3 mps 745 mmHg 84%
18:00 +8°C° 0.1 mm 3 mps 746 mmHg 89%
19:00 +8°C° 0 mm 3 mps 746 mmHg 88%
20:00 +7°C° 0 mm 4 mps 747 mmHg 88%
21:00 +7°C° 0 mm 4 mps 747 mmHg 87%
22:00 +7°C° 0 mm 5 mps 748 mmHg 87%
23:00 +7°C° 0 mm 5 mps 748 mmHg 86%

, 26 October, Monday

Time Temperature Precipitation Wind Pressure Humidity
00:00 +6°C° 0 mm 5 mps 748 mmHg 86%
01:00 +6°C° 0 mm 5 mps 749 mmHg 85%
02:00 +6°C° 0 mm 4 mps 749 mmHg 85%
03:00 +5°C° 0 mm 4 mps 750 mmHg 84%
04:00 +5°C° 0 mm 4 mps 750 mmHg 87%
05:00 +4°C° 0 mm 4 mps 751 mmHg 89%
06:00 +3°C° 0 mm 3 mps 751 mmHg 92%
07:00 +3°C° 0 mm 3 mps 752 mmHg 91%
08:00 +4°C° 0 mm 3 mps 752 mmHg 90%
09:00 +4°C° 0 mm 3 mps 753 mmHg 88%
10:00 +5°C° 0 mm 3 mps 753 mmHg 80%
11:00 +7°C° 0 mm 3 mps 754 mmHg 72%
12:00 +7°C° 0 mm 3 mps 754 mmHg 64%
13:00 +8°C° 0 mm 2 mps 754 mmHg 62%
14:00 +8°C° 0 mm 2 mps 754 mmHg 60%
15:00 +8°C° 0 mm 2 mps 754 mmHg 57%
16:00 +7°C° 0 mm 2 mps 754 mmHg 62%
17:00 +7°C° 0 mm 1 mps 755 mmHg 67%
18:00 +6°C° 0 mm 1 mps 755 mmHg 72%
19:00 +6°C° 0 mm 1 mps 755 mmHg 74%
20:00 +5°C° 0 mm 1 mps 755 mmHg 76%
21:00 +5°C° 0 mm 1 mps 756 mmHg 78%
22:00 +5°C° 0 mm 1 mps 756 mmHg 79%
23:00 +4°C° 0 mm 1 mps 756 mmHg 80%

26 October, Monday

Time Temperature Precipitation Wind Pressure Humidity
00:00 +6°C° 0 mm 5 mps 748 mmHg 86%
01:00 +6°C° 0 mm 5 mps 749 mmHg 85%
02:00 +6°C° 0 mm 4 mps 749 mmHg 85%
03:00 +5°C° 0 mm 4 mps 750 mmHg 84%
04:00 +5°C° 0 mm 4 mps 750 mmHg 87%
05:00 +4°C° 0 mm 4 mps 751 mmHg 89%
06:00 +3°C° 0 mm 3 mps 751 mmHg 92%
07:00 +3°C° 0 mm 3 mps 752 mmHg 91%
08:00 +4°C° 0 mm 3 mps 752 mmHg 90%
09:00 +4°C° 0 mm 3 mps 753 mmHg 88%
10:00 +5°C° 0 mm 3 mps 753 mmHg 80%
11:00 +7°C° 0 mm 3 mps 754 mmHg 72%
12:00 +7°C° 0 mm 3 mps 754 mmHg 64%
13:00 +8°C° 0 mm 2 mps 754 mmHg 62%
14:00 +8°C° 0 mm 2 mps 754 mmHg 60%
15:00 +8°C° 0 mm 2 mps 754 mmHg 57%
16:00 +7°C° 0 mm 2 mps 754 mmHg 62%
17:00 +7°C° 0 mm 1 mps 755 mmHg 67%
18:00 +6°C° 0 mm 1 mps 755 mmHg 72%
19:00 +6°C° 0 mm 1 mps 755 mmHg 74%
20:00 +5°C° 0 mm 1 mps 755 mmHg 76%
21:00 +5°C° 0 mm 1 mps 756 mmHg 78%
22:00 +5°C° 0 mm 1 mps 756 mmHg 79%
23:00 +4°C° 0 mm 1 mps 756 mmHg 80%

27 October, Tuesday

Time Temperature Precipitation Wind Pressure Humidity
00:00 +4°C° 0 mm 1 mps 756 mmHg 81%
01:00 +3°C° 0 mm 2 mps 756 mmHg 81%
02:00 +3°C° 0 mm 2 mps 756 mmHg 82%
03:00 +2°C° 0 mm 2 mps 756 mmHg 82%
04:00 +2°C° 0 mm 2 mps 757 mmHg 83%
05:00 +2°C° 0 mm 2 mps 757 mmHg 84%
06:00 +2°C° 0 mm 2 mps 757 mmHg 84%
07:00 +2°C° 0 mm 2 mps 757 mmHg 82%
08:00 +3°C° 0 mm 2 mps 757 mmHg 81%
09:00 +2°C° 0 mm 3 mps 758 mmHg 79%
10:00 +3°C° 0 mm 3 mps 758 mmHg 74%
11:00 +5°C° 0 mm 3 mps 758 mmHg 69%
12:00 +7°C° 0 mm 3 mps 758 mmHg 64%
13:00 +7°C° 0 mm 3 mps 757 mmHg 63%
14:00 +7°C° 0 mm 3 mps 757 mmHg 62%
15:00 +8°C° 0 mm 3 mps 757 mmHg 61%
16:00 +7°C° 0 mm 3 mps 757 mmHg 66%
17:00 +5°C° 0 mm 3 mps 757 mmHg 71%
18:00 +4°C° 0 mm 3 mps 756 mmHg 77%
19:00 +3°C° 0 mm 3 mps 756 mmHg 76%
20:00 +3°C° 0 mm 3 mps 756 mmHg 76%
21:00 +3°C° 0 mm 4 mps 756 mmHg 76%
22:00 +3°C° 0 mm 4 mps 756 mmHg 76%
23:00 +4°C° 0 mm 4 mps 756 mmHg 76%

28 October, Wednesday

Time Temperature Precipitation Wind Pressure Humidity
00:00 +4°C° 0 mm 4 mps 756 mmHg 75%
01:00 +4°C° 0 mm 4 mps 756 mmHg 76%
02:00 +3°C° 0 mm 4 mps 755 mmHg 76%
03:00 +3°C° 0 mm 3 mps 755 mmHg 77%
04:00 +4°C° 0 mm 4 mps 755 mmHg 76%
05:00 +4°C° 0 mm 4 mps 755 mmHg 76%
06:00 +4°C° 0 mm 4 mps 755 mmHg 75%
07:00 +4°C° 0 mm 4 mps 755 mmHg 75%
08:00 +5°C° 0 mm 4 mps 755 mmHg 76%
09:00 +5°C° 0 mm 4 mps 754 mmHg 76%
10:00 +6°C° 0 mm 4 mps 754 mmHg 73%
11:00 +7°C° 0 mm 5 mps 754 mmHg 70%
12:00 +7°C° 0 mm 5 mps 754 mmHg 68%
13:00 +8°C° 0 mm 5 mps 754 mmHg 66%
14:00 +8°C° 0 mm 5 mps 754 mmHg 64%
15:00 +10°C° 0 mm 4 mps 753 mmHg 62%
16:00 +8°C° 0 mm 4 mps 753 mmHg 64%
17:00 +7°C° 0 mm 4 mps 753 mmHg 66%
18:00 +6°C° 0 mm 4 mps 753 mmHg 68%
19:00 +6°C° 0 mm 4 mps 753 mmHg 67%
20:00 +6°C° 0 mm 4 mps 753 mmHg 66%
21:00 +6°C° 0 mm 4 mps 753 mmHg 65%
22:00 +6°C° 0 mm 4 mps 753 mmHg 64%
23:00 +6°C° 0 mm 4 mps 753 mmHg 63%
Show more

We Need Your Consent

Meteoprog and our Service Providers may store and access personal data such as cookies, device identifiers or other similar technologies on your device and process such data to personalise content and ads, as well as provide social media features and to analyse the traffic.

  • Store and/or access information on your device

    Cookies, device identifiers or other information can be stored or accessed on your device for the purposes indicated above.

  • Personalised ads and content, ad and content measurement, audience insights, and products development

    Ads and content can be personalised based on a profile. More data can be added to better personalise ads and content. Ad and content performance can be measured. Insights about the audience who saw the ads and content can be derived. Such data can be used to develop or improve user’s experience, systems and software.

By clicking ‘I Agree’ you will allow the use of indicated cookies, device identifiers, web beacons or other similar technologies. Your settings can be changed in the browser on your device.

For certain purposes, legitimate interests may be relied on, rather than consent. You can read more about this in our Privacy and Cookie Policy.